Hourly Data Report for June 04, 2021

BORDEN AWOS
ONTARIO
Current Station Operator: DND

44°16'20.000" N
79°54'42.000" W
222.50 m
611B002
71534
YBN

Download Data

Hourly Data (June 2021)
Hourly Data Report for June 4, 2021
TIME
LST
Temp Definition
°C
Dew Point Definition
°C
Rel Hum Definition
%
Precip. Amount Definition
mm

Wind Dir Definition
10's deg

Wind Spd Definition
km/h
Visibility Definition
km
Stn Press Definition
kPa
Hmdx Definition


Wind Chill Definition


Weather Definition


00:00 14.3 12.5 89   18 6 12.9 98.40     LegendNANA
01:00 14.9 13.0 88   17 11 11.3 98.38     LegendNANA
02:00 13.9 12.8 93     0 8.0 98.37     LegendNANA
03:00 17.4 14.7 84   22 13 14.5 98.35     LegendNANA
04:00 17.8 14.2 80   23 13 14.5 98.34     LegendNANA
05:00 17.9 14.2 79   25 9 14.5 98.38     LegendNANA
06:00 17.9 14.3 80   23 7 14.5 98.43     LegendNANA
07:00 19.7 15.0 74   26 11 14.5 98.44     LegendNANA
08:00 21.1 15.0 68   25 11 14.5 98.49 25   LegendNANA
09:00 20.8 15.0 69   24 7 14.5 98.51 25   LegendNANA
10:00 21.7 14.9 65   26 6 14.5 98.50 26   LegendNANA
11:00 23.3 14.7 59   12 4 14.5 98.48 27   LegendNANA
12:00 24.8 15.7 57   11 11 14.5 98.43 29   LegendNANA
13:00 24.6 15.7 58   11 9 14.5 98.38 29   LegendNANA
14:00 25.8 14.5 50   24 11 14.5 98.34 29   LegendNANA
15:00 26.5 14.5 48   28 15 14.5 98.34 30   LegendNANA
16:00 25.8 14.9 51   35 7 14.5 98.34 30   LegendNANA
17:00 25.9 15.2 52   33 4 14.5 98.32 30   LegendNANA
18:00 25.1 15.4 55   35 11 14.5 98.29 29   LegendNANA
19:00 23.5 14.6 57   32 6 14.5 98.28 27   LegendNANA
20:00 19.5 15.3 77     0 14.5 98.28     LegendNANA
21:00 16.0 13.9 87   21 4 14.5 98.32     LegendNANA
22:00 15.4 14.1 92     0 14.5 98.28     LegendNANA
23:00 15.6 14.2 91   18 9 14.5 98.22     LegendNANA

Notes on Data Quality.

Legend

  • E = Estimated
  • M = Missing
  • NA = Not Available*
  • [empty] = Indicates an unobserved value
Date modified: